Warning: Javascript must be enabled to use all the features on this page!


Page Loading - Please Wait...

Click to hideNews Bulletins

Peak Streamflow for the Nation

USGS 05076000 THIEF RIVER NEAR THIEF RIVER FALLS, MN

Marshall County, Minnesota
Hydrologic Unit Code 09020304
Latitude  48°11'08", Longitude  96°10'11" NAD27
Drainage area 985  square miles
Gage datum 1,112.33 feet above NGVD29
Output formats
Table
Graph
Tab-separated file
peakfq (watstore) format
Reselect output format
Water
Year
Date Gage
Height
(feet)
Stream-
flow
(cfs)
1909 1909-07-19 10.60 1,9701
1910 1910-04-03 9.05 1,4401
1911 1911-04-26 5.40 127
1912 1912-09-30 5.60 164
1913 1913-04-15 8.702 1,2501
1914 1914-06-11 7.42 795
1915 1915-06-30 10.66 1,920
1916 1916-04-23 14.50 4,0801
1917 1917-04-11 12.721 2,600
1919 1919-07-10 16.30 5,040
1920 1920-04-08   1,7801
1921 1921-04-06   1,7001
1922 1922-05-12 11.90 2,680
1923 1923-04-21 8.40 1,1601
1924 1924-04-21 5.30 145
1925 1925-06-11 9.10 1,420
1926 1926-06-25 9.702 1,660
1929 1929-03-18 13.71 1,870
1930 1930-05-12 7.262 7761
1931 1931-04-15 4.802 39.0
1932 1932-04-08 9.251 1,340
1933 1933-04-18 6.35 470
1934 1934-04-07 5.671,2 1501,2
1935 1935-04-13 6.122 318
1936 1936-04-19 8.042 890
1937 1937-08-03   1,0601,2
1938 1938-05-19 9.002 1,1301
1939 1939-04-27 4.82 35.0
1940 1940-04-15 7.852 728
1941 1941-06-12 7.82 822
1942 1942-05-02 9.692 1,480
1943 1943-04-08 9.432 1,060
1944 1944-06-06 7.15 666
1945 1945-04-11 10.242 1,650
1946 1946-04-06 8.772 1,170
1947 1947-06-11 9.84 1,560
1948 1948-04-19 10.672 1,850
1949 1949-06-01 10.00 1,620
1950 1950-05-13 17.38 5,610
1951 1951-05-02 9.81 1,630
1952 1952-04-08 10.721 1,500
1953 1953-06-02 6.37 429
1954 1954-04-12 7.611 624
1955 1955-04-08 10.721 958
1956 1956-04-21 10.57 1,840
1957 1957-09-03 9.97 1,630
1958 1957-10-17 7.672 828
1959 1959-04-05 8.482 950
1960 1960-04-06 12.111 1,100
1961 1961-03-24 7.491 441
1962 1962-06-10 12.68 2,800
1963 1963-04-08 11.43 2,180
1964 1964-08-02 12.05 2,480
1965 1965-04-12 14.992 4,110
1966 1966-04-03 15.661 3,320
1967 1967-04-21 13.262 3,100
1968 1968-07-18 10.84 1,950
1969 1969-04-13 13.552 3,190
1970 1970-06-17 12.72 2,820
1971 1971-04-09 11.402 1,780
1972 1972-04-18 11.732 2,340
1973 1973-09-29 7.862 871
1974 1974-04-21 13.372 3,160
1975 1975-07-02 14.17 3,260
1976 1976-04-01 12.751 1,350
1977 1977-05-19 6.35 403
1978 1978-04-18 12.572 2,740
1979 1979-04-24 14.112 3,590
1980 1980-04-07 10.45 1,710
1981 1981-06-28 7.08 620
1982 1982-05-04 11.272 2,130
1983 1983-03-07 14.191 1,500
1984 1984-06-09 9.80 1,520
1985 1985-06-28 11.27 2,130
1986 1986-05-01 11.822 2,420
1987 1987-03-26 13.231 1,570
1988 1988-04-04 10.371 1,170
1989 1989-04-16 14.311 2,300
1990 1990-04-01 6.111,2 150
1991 1991-05-23 6.07 314
1992 1992-04-22 8.802 1,220
1993 1993-08-31 11.742 2,180
1994 1994-07-09 11.38 1,960
1995 1995-03-29 11.782 2,080
1996 1996-05-18 13.862 3,350
1997 1997-04-22 15.202 4,120
1998 1998-05-17 10.712 1,770
1999 1999-04-06   3,9002
2000 2000-06-22 10.47 1,670
2001 2001-04-09 16.581 3,4002
2002 2002-06-10 14.55 3,410
2003 2003-04-29 7.952 908
2004 2004-05-31 13.49 2,930
2005 2005-06-12 12.752 2,610
2006 2006-04-06 13.502 3,170
2007 2007-06-21 9.022 1,210
2008 2008-06-11 8.782 1,230
2009 2009-04-06 13.152 3,000
2010 2010-03-17 16.26 3,250
2011 2011-04-10 14.402 3,650
2012 2012-08-02 7.072 658
2013 2013-04-27 12.64 2,760
2014 2014-04-12 12.612 2,740
2015 2015-06-10 9.50 1,470
2016 2016-06-05 10.96 2,010
2017 2017-03-30 11.861,2 2,2402
2018 2018-04-20 9.771,2 1,2602
2019 2019-04-14 13.442 3,140
2020 2020-04-09 14.042 3,450
2021 2020-11-02 6.002 327
?
  Peak Gage-Height Qualification Codes.
?
  Peak Streamflow Qualification Codes.